Location: Township of Marena
(38.1747°N, 99.6798°W)
Time: 14:46:01
(UTC+00:00)

Cosmos 2058 - Pass Details

Date: 26 October 2020
Orbit: 562 x 583 km, 82.5° (Epoch: 28 November)

Event Time Altitude Azimuth Distance (km) Brightness Sun altitude
Rises 01:21:28 0° 358° (N) 2,761 6.4 -19.2°
Reaches altitude 10° 01:23:42 10° 3° (N) 1,860 5.5 -19.6°
Enters shadow 01:26:46 42° 36° (NE) 811 3.3 -20.2°
